Погода в Хабазе

Россия / Кабардино-Балкарская Республика     43°43′47″N   42°56′05″E
темп.,
°C
ветер,
м/с
пор.,
м/с
влажн.,
%
обл.,
%
осадки,
мм/ч
давл.,
гПа
погр.,
м
8 мая, сб
сб800:00+8ю11845 0.0 101911
03:00+7юз11845 0.0 101911
06:00+8ююз117710 0.0 101718
09:00+13в336575 0.0 1015577
12:00+16в4363100 0.0 1014888
15:00+15вюв4469100 0.0 1014720
18:00+13вюв2481100 0.0 1013192
21:00+10юз22875 0.0 101412
9 мая, вс
вс900:00+10юз326319 0.0 101116
03:00+10зюз3352100 0.0 101023
06:00+11зюз3461100 0.0 100945
09:00+15св226197 0.0 1007583
12:00+11ссз4789100 1.6 1010709
15:00+6сз6993100 6.1 1012392
18:00+3зсз71391100 3.8 1016515
21:00+2сз61385100 4.6 1021747
10 мая, пн
пн1000:00+2зсз5118898 0.1 1022630
03:00+1зсз498599 0.2 1023499
06:00+1зсз5107797 0.0 1022677
09:00+6сз555385 0.0 10211496
12:00+7сз3459100 0.7 10191432
15:00+6с2274100 2.8 10191001
18:00+3с2492100 5.3 1020460
21:00+1ююв119499 7.9 1022279
11 мая, вт
вт1100:00+1ююв239783 0.1 1021199
03:00−1ююз219460 0.1 1022162
06:000юз2279100 0.0 102152
09:00+4вюв3376100 0.0 1019526
12:00+7вюв546899 0.0 10171016
15:00+6вюв4581100 0.1 1018693
18:00+6вюв3485100 0.0 1019555
21:00+4юв229479 0.0 101927
12 мая, ср
ср1200:00+2ююз21915 0.0 101910
03:00+2ю218637 0.0 101810
06:00+4ю118118 0.0 101830
09:00+9вюв437825 0.0 1016584
12:00+12в537349 0.0 1015826
15:00+12в427582 0.1 1016765
18:00+11вюв348413 0.7 1016459
21:00+7ююз22900 0.7 101611